Change the Weather History Date:

Sunday, November 3, 2013

  Actual Average Record
Temperature  
Mean Temperature 53 °F 57 °F  
Max Temperature 64 °F 66 °F 80 °F (1974)
Min Temperature 41 °F 47 °F 19 °F (1954)
Degree Days  
Heating Degree Days 12 9  
Month to date heating degree days 20 26  
Since 1 July heating degree days 151 184  
Growing Degree Days 2 (Base 50)    
Moisture  
Dew Point 36 °F    
Average Humidity 56    
Maximum Humidity 82    
Minimum Humidity 30    
Precipitation  
Precipitation 0.00 in 0.11 in 1.60 in (1948)
Month to date precipitation 0.31 0.31  
Year to date precipitation 45.32  
Snow  
Snow 0.00 in - - ()
Month to date snowfall 0.0  
Since 1 July snowfall 0.0  
Since 1 September snowfall 0.0  
Snow Depth 0.00 in    
Sea Level Pressure  
Sea Level Pressure 30.19 in    
Wind  
Wind Speed 5 mph (NW)    
Max Wind Speed 10 mph    
Max Gust Speed 25 mph    
Visibility 10 miles    
Events      
T = Trace of Precipitation, MM = Missing Value Source: NWS Daily Summary

Daily Weather History Graph

Daily Weather History Graph

Search for Another Location

Airport or City:

Trip Planner

Search our weather history database for the weather conditions in past years. The results will help you decide how hot, cold, wet, or windy it might be!

Date:

Astronomy

Nov. 03, 2013 Rise Set
Actual Time 6:57 AM EST 5:40 PM EST
Civil Twilight 6:31 AM EST 6:06 PM EST
Nautical Twilight 6:01 AM EST 6:35 PM EST
Astronomical Twilight 5:32 AM EST 7:05 PM EST
Moon 6:59 AM EST (11/3) 5:55 PM EST (11/3)
Length of Visible Light 11h 34m
Length of Day
10h 42m
New Moon, 0% of the Moon is Illuminated
Nov 3
New Moon
Nov 10
First Quarter
Nov 17
Full
Nov 25
Last Quarter
Dec 2
New

Hourly Weather History & Observations

Time (EST) Temp. Windchill Dew Point Humidity Pressure Visibility Wind Dir Wind Speed Gust Speed Precip Events Conditions
12:53 AM 48.9 °F - 36.0 °F 61% 30.06 in 10.0 mi WNW 6.9 mph - N/A   Clear
1:53 AM 48.0 °F - 36.0 °F 63% 30.06 in 10.0 mi NW 4.6 mph - N/A   Clear
1:53 AM 46.9 °F - 37.0 °F 68% 30.06 in 10.0 mi NW 9.2 mph - N/A   Clear
2:53 AM 45.0 °F 41.2 °F 37.9 °F 76% 30.08 in 10.0 mi NW 6.9 mph - N/A   Clear
3:53 AM 45.0 °F 41.2 °F 37.9 °F 76% 30.09 in 10.0 mi NW 6.9 mph - N/A   Clear
4:53 AM 44.1 °F 42.5 °F 37.9 °F 79% 30.11 in 10.0 mi WNW 3.5 mph - N/A   Clear
5:53 AM 42.1 °F 39.2 °F 37.0 °F 82% 30.14 in 10.0 mi West 4.6 mph - N/A   Clear
6:53 AM 45.0 °F 40.6 °F 37.9 °F 76% 30.16 in 10.0 mi NNW 8.1 mph - N/A   Clear
7:53 AM 46.9 °F - 37.9 °F 71% 30.19 in 10.0 mi NW 5.8 mph - N/A   Clear
8:53 AM 48.9 °F - 39.0 °F 69% 30.22 in 10.0 mi NW 9.2 mph - N/A   Clear
9:53 AM 54.0 °F - 39.0 °F 57% 30.23 in 10.0 mi NNW 4.6 mph - N/A   Clear
10:53 AM 55.9 °F - 35.1 °F 45% 30.25 in 10.0 mi NNW 4.6 mph - N/A   Clear
11:53 AM 59.0 °F - 34.0 °F 39% 30.24 in 10.0 mi NW 5.8 mph - N/A   Clear
12:53 PM 60.1 °F - 33.1 °F 36% 30.21 in 10.0 mi Calm Calm - N/A   Clear
1:53 PM 63.0 °F - 33.1 °F 33% 30.19 in 10.0 mi Variable 5.8 mph - N/A   Clear
2:53 PM 62.1 °F - 30.9 °F 31% 30.19 in 10.0 mi Calm Calm - N/A   Clear
3:53 PM 61.0 °F - 32.0 °F 34% 30.19 in 10.0 mi WSW 5.8 mph - N/A   Clear
4:53 PM 61.0 °F - 32.0 °F 34% 30.20 in 10.0 mi SSE 4.6 mph - N/A   Clear
5:53 PM 55.9 °F - 34.0 °F 44% 30.22 in 10.0 mi SE 3.5 mph - N/A   Clear
6:53 PM 55.0 °F - 34.0 °F 45% 30.24 in 10.0 mi SE 4.6 mph - N/A   Clear
7:53 PM 54.0 °F - 35.1 °F 49% 30.26 in 10.0 mi ESE 3.5 mph - N/A   Clear
8:53 PM 52.0 °F - 35.1 °F 53% 30.27 in 10.0 mi ESE 3.5 mph - N/A   Clear
9:53 PM 50.0 °F - 36.0 °F 59% 30.28 in 10.0 mi East 5.8 mph - N/A   Clear
10:53 PM 48.0 °F - 36.0 °F 63% 30.31 in 10.0 mi Calm Calm - N/A   Clear